Regional Weather Roundup
Issued by NWS Upton, NY

Current Version | Previous Version | Text Only | Print | Product List | Glossary On
Versions: 1 2 3 4 5 6 7 8 9 10 11 12 13 14 15 16 17 18 19 20 21 22 23 24 25 26 27 28 29 30 31 32 33 34 35 36 37 38 39 40 41 42 43 44 45 46 47 48 49 50
010
ASUS41 KOKX 232305
RWROKX

REGIONAL WEATHER ROUNDUP
NATIONAL WEATHER SERVICE NEW YORK NY
700 PM EDT MON MAY 23 2016

NOTE: "FAIR" INDICATES FEW OR NO CLOUDS BELOW 12,000 FEET WITH NO
SIGNIFICANT WEATHER AND/OR OBSTRUCTIONS TO VISIBILITY.

NYZ071-072-176-178-NJZ106-104-240000-
NEW YORK CITY METRO AREA


CITY           SKY/WX    TMP DP  RH WIND       PRES   REMARKS
CENTRAL PARK   MOSUNNY   62  51  67 W3        29.89S
LAGUARDIA APRT CLOUDY    67  50  54 S8        29.86R
KENNEDY INTL   PTSUNNY   64  46  52 S7        29.89R
NEWARK/LIBERTY LGT RAIN  67  50  54 CALM      29.87R
BRNX BOT. GARD   N/A     64  46  52 S3        29.87S
TETERBORO      MOSUNNY   63  54  72 S9        29.85R
$$

NYZ177-179-078>081-240000-
LONG ISLAND NEW YORK

CITY           SKY/WX    TMP DP  RH WIND       PRES   REMARKS
FARMINGDALE    MOSUNNY   66  46  48 S6        29.88R
ISLIP          PTSUNNY   67  44  43 SE8       29.87R
SHIRLEY        PTSUNNY   67  45  45 SE7       29.88R
RIVERHEAD        N/A     70  50  49 SE3       29.86S
WESTHAMPTON    CLOUDY    60  45  57 S5        29.89R
EAST HAMPTON   FAIR      65  44  46 S3        29.86S
MONTAUK POINT    N/A     65  48  54 CALM      29.89R
$$

NYZ052-065-067-240000-
HUDSON VALLEY

CITY           SKY/WX    TMP DP  RH WIND       PRES   REMARKS
WHITE PLAINS   MOSUNNY   66  50  56 S9        29.86R
NEWBURGH       PTSUNNY   77  48  36 E7        29.84S
MONTGOMERY     CLOUDY    76  50  40 NE5       29.82S
POUGHKEEPSIE   CLOUDY    79  50  36 VRB7      29.81S
ALBANY         MOSUNNY   78  37  22 NE9       29.84S
$$

NJZ001-105-106-008-010-013-015-019>022-104-240000-
NEW JERSEY

CITY           SKY/WX    TMP DP  RH WIND       PRES   REMARKS
NEWARK/LIBERTY LGT RAIN  67  50  54 CALM      29.87R
TETERBORO      MOSUNNY   63  54  72 S9        29.85R
CALDWELL       LGT RAIN  64  54  69 VRB5      29.86R
MORRISTOWN     PTSUNNY   64  59  82 SE8       29.88R
SOMERVILLE     LGT RAIN  65  61  87 SE3       29.83S
SUSSEX         PTSUNNY   72  51  47 CALM      29.84S
ANDOVER          N/A     71  52  50 SW3       29.85S
TRENTON        CLOUDY    65  54  67 SW6       29.87R
MILLVILLE      CLOUDY    64  52  64 S3        29.89R
ATLANTIC CITY  MOSUNNY   63  47  55 E6        29.89R
WRIGHTSTOWN    MOSUNNY   68  52  56 E6        29.84S
TOMS RIVER     PTSUNNY   64  46  52 S7        29.89R
BELMAR         MOSUNNY   65  48  54 SE5       29.90R
$$

PAZ047>061-062-071-240000-
EASTERN PENNSYLVANIA

CITY           SKY/WX    TMP DP  RH WIND       PRES   REMARKS
PHILADELPHIA   CLOUDY    64  57  77 S6        29.87F
ALLENTOWN      CLOUDY    67  57  70 SE3       29.87R
SCRANTON       PTSUNNY   74  49  41 W3        29.86S
$$

CTZ002-004>006-009-010-012-RIZ004-006-007-MAZ004-011-015-240000-
SOUTHERN NEW ENGLAND
 IN CT

CITY           SKY/WX    TMP DP  RH WIND       PRES   REMARKS
BRADLEY INTL   CLOUDY    77  44  30 VRB7      29.83R
HARTFORD       CLOUDY    74  51  44 S8        29.84R
DANBURY        MOSUNNY   69  50  50 S8        29.87R
WTRBRY/OXFORD  PTSUNNY   68  48  49 S8        29.87R
BRIDGEPORT     MOSUNNY   69  49  48 SW9       29.87R
MERIDEN        PTSUNNY   71  48  43 S9        29.85R
NEW HAVEN      PTSUNNY   65  52  62 S8        29.87R
CHESTER        FAIR      68  46  45 S7        29.88R
GROTON         PTSUNNY   64  50  60 SE5       29.87R
WILLIMANTIC    CLOUDY    75  40  28 VRB7      29.85R

 IN RI

CITY           SKY/WX    TMP DP  RH WIND       PRES   REMARKS
PROVIDENCE     CLOUDY    71  42  35 E14       29.88R
BLOCK ISLAND   CLOUDY    61  52  72 E10       29.90R
WESTERLY       PTSUNNY   69  43  38 S9        29.88R

 IN MA

CITY           SKY/WX    TMP DP  RH WIND       PRES   REMARKS
BOSTON         CLOUDY    61  50  67 E8        29.88F
WORCESTER      CLOUDY    67  41  38 E5        29.89R
WESTFIELD      CLOUDY    76  44  32 VRB6      29.83S
PROVINCETOWN   CLOUDY    60  52  74 SE10      29.89F
NANTUCKET      CLOUDY    57  52  83 E9        29.89S
$$

ANZ330-335-338-340-345-350-353-355-240000-
COASTAL MARINE OBSERVATIONS


STATION/POSITION TIME  SKY/WX   TEMP    WIND        PRES    VSBY  WAVE
                                AIR SEA DIR/SP/G                  HT/PER
                 (UTC)          (F)     (DEG/KT/KT) (MB)    (MI)  (FT/S)
NY HARB ENTRANCE 2150            60 58  220/  4/  6 1010.9          3/ 8
20S FIRE ISLAND  2150            59 59  220/  2/  4 1010.7          3/ 9
GREAT SOUTH BAY  2200            63 65  210/  4/  4   N/A
23 SSW MONTAUK P 2250            62 59   50/  2/  4 1011.0          3/ 8
15 E BARNEGAT LI 2222               57                N/A           4/ 8
HUDSON CANYON    2150            54 52              1010.2          4/ 8
KINGS POINT      2200            64 58              1010.7
EXECUTION ROCKS  NOT AVBL
CENTRAL LI SOUND 2200            64     160/  8/  8   N/A           0
EASTERN LI SOUND 2200            68 53   CALM  /  2   N/A
ROBBINS REEF     2200            62                 1010.3
$$


>>>>>>>>>>>>>>>>>>>>>>>>>>>> KEY <<<<<<<<<<<<<<<<<<<<<<<<<<<
>                                                          <
>     SKY/WX - SKY CONDITION/PRESENT WEATHER               <
>     TMP    - TEMPERATURE IN FAHRENHEIT                   <
>     DP     - DEWPOINT IN FAHRENHEIT                      <
>     RH     - RELATIVE HUMIDITY IN PERCENT                <
>     WIND   - DIRECTION AND SPEED IN MPH                  <
>     PRES   - MEAN SEA LEVEL PRESSURE IN INCHES OF HG     <
>     WCI    - WIND CHILL INDEX                            <
>     VSB    - VISIBILITY IN MILES                         <
>     HX     - HEAT INDEX                                  <
>     TC     - TEMPERATURE IN CELSIUS                      <
>     VRB    - VARIABLE WIND DIRECTION                     <
>                                                          <
>>>>>>>>>>>>>>>>>>>>>>>>>>>> KEY <<<<<<<<<<<<<<<<<<<<<<<<<<<






USA.gov is the U.S. government's official web portal to all federal, state and local government web resources and services.